This is the latest recevied weather packets stored in our database for station/object EA1IWF-10. If no packets are shown the sender has not sent any weather packets the latest 10 day(s).
| Time | Temp. | Humidity | Pressure | Rain* | Wind** | Luminosity | Snow |
|---|---|---|---|---|---|---|---|
| 1788215708 | 25° C | 43% | 1023.2 hPa | - | - | - | - |
| 1788215673 | 23.33° C | 43% | 1023.3 hPa | - | - | - | - |
| 1788214772 | 23.33° C | 42% | 1023.2 hPa | - | - | - | - |
| 1788213871 | 23.33° C | 41% | 1023.1 hPa | - | - | - | - |
| 1788212970 | 23.89° C | 39% | 1023.1 hPa | - | - | - | - |
| 1788212070 | 24.44° C | 36% | 1023 hPa | - | - | - | - |
| 1788211169 | 25° C | 35% | 1022.9 hPa | - | - | - | - |
| 1788210268 | 25° C | 33% | 1022.7 hPa | - | - | - | - |
| 1788209366 | 25.56° C | 32% | 1022.7 hPa | - | - | - | - |
| 1788208465 | 25.56° C | 31% | 1022.5 hPa | - | - | - | - |
| 1788207564 | 26.11° C | 31% | 1022.4 hPa | - | - | - | - |
| 1788206664 | 26.11° C | 31% | 1022.2 hPa | - | - | - | - |
| 1788205763 | 26.67° C | 30% | 1022 hPa | - | - | - | - |
| 1788204868 | 27.22° C | 29% | 1021.8 hPa | - | - | - | - |
| 1788203973 | 27.78° C | 28% | 1021.8 hPa | - | - | - | - |
| 1788203061 | 28.33° C | 26% | 1021.7 hPa | - | - | - | - |
| 1788202160 | 29.44° C | 23% | 1021.7 hPa | - | - | - | - |
| 1788201259 | 30.56° C | 22% | 1021.7 hPa | - | - | - | - |
| 1788200358 | 31.11° C | 21% | 1021.8 hPa | - | - | - | - |
| 1788199457 | 31.11° C | 21% | 1021.8 hPa | - | - | - | - |
| 1788198556 | 32.22° C | 20% | 1021.8 hPa | - | - | - | - |
| 1788197656 | 34.44° C | 19% | 1021.8 hPa | - | - | - | - |
| 1788196755 | 34.44° C | 19% | 1021.9 hPa | - | - | - | - |
| 1788195854 | 38.89° C | 17% | 1021.9 hPa | - | - | - | - |
| 1788194953 | 37.78° C | 18% | 1022 hPa | - | - | - | - |
* Rain since midnight (hover to see other rain measurements)
** Current wind speed in m/s (hover to see current wind gust speed)